Location: Mountain Grove
(34.0887°N, 86.6172°W)
Time: 21:49:19
(UTC+00:00)

H-2A R/B - Pass Details

Date: 14 July 2020
Orbit: 577 x 656 km, 98.5° (Epoch: 08 August)

Event Time Altitude Azimuth Distance (km) Brightness Sun altitude
Exits shadow 10:05:22 - 195° (SSW) 2,726 4.9 -8.1°
Reaches altitude 10° 10:07:19 10° 207° (SSW) 2,023 4.2 -7.8°
Maximum altitude 10:10:58 25° 263° (W) 1,271 3.2 -7.1°
Drops below altitude 10° 10:14:34 10° 319° (NW) 1,996 4.6 -6.5°
Sets 10:17:04 0° 332° (NNW) 2,892 5.5 -6.0°
